AMAZONAS 5

Last updated on Thu Jul 03 2025 00:02:47 GMT+0000 (Coordinated Universal Time)

1 42934U 17053A 25183.59230894 -.00000275 00000+0 00000+0 0 9990 2 42934 0.0294 334.3875 0001837 84.0339 14.6461 1.00272454 28533
UTC large
Height (km)
Speed (km/s)
/
Latitude / Longitude
Inclination (degrees)
Orbital Period (minutes)
Azimuth
Elevation
Range (km)
Doppler Factor

Next 0 passes for location: London (51.5072 / 0.1276)

Sorry there are no passes over London.